Time,TemperatureF,DewpointF,PressureIn,WindDirection,WindDirectionDegrees,WindSpeedMPH,WindSpeedGustMPH,Humidity,HourlyPrecipIn,Conditions,Clouds,dailyrainin,SoftwareType,DateUTC
2013-01-12 00:02:00,-3.0,-9.0,30.10,WSW,242,0.0,-999.0,76,-99.99,,,-99.99,,2013-01-12 07:02:00,
2013-01-12 00:11:00,-4.0,-10.0,30.10,WSW,242,0.0,-999.0,76,-99.99,,,-99.99,,2013-01-12 07:11:00,
2013-01-12 00:22:00,-4.0,-10.0,30.10,WSW,242,0.0,-999.0,76,-99.99,,,-99.99,,2013-01-12 07:22:00,
2013-01-12 00:32:00,-4.0,-10.0,30.11,WSW,242,0.0,-999.0,76,-99.99,,,-99.99,,2013-01-12 07:32:00,
2013-01-12 00:42:00,-4.0,-10.0,30.11,WSW,242,0.0,-999.0,76,-99.99,,,-99.99,,2013-01-12 07:42:00,
2013-01-12 00:52:00,-4.0,-9.0,30.11,WSW,242,0.0,-999.0,77,-99.99,,,-99.99,,2013-01-12 07:52:00,
2013-01-12 01:02:00,-4.0,-11.0,30.12,WSW,242,0.0,-999.0,72,-99.99,,,-99.99,,2013-01-12 08:02:00,
2013-01-12 01:11:00,-4.0,-11.0,30.12,WSW,242,0.0,-999.0,72,-99.99,,,-99.99,,2013-01-12 08:11:00,
2013-01-12 01:22:00,-4.0,-10.0,30.12,WSW,242,0.0,-999.0,76,-99.99,,,-99.99,,2013-01-12 08:22:00,
2013-01-12 01:32:00,-5.0,-11.0,30.12,WSW,242,0.0,-999.0,74,-99.99,,,-99.99,,2013-01-12 08:32:00,
2013-01-12 01:42:00,-5.0,-11.0,30.12,WSW,242,0.0,-999.0,74,-99.99,,,-99.99,,2013-01-12 08:42:00,
2013-01-12 01:52:00,-6.0,-12.0,30.12,WSW,242,0.0,-999.0,74,-99.99,,,-99.99,,2013-01-12 08:52:00,
2013-01-12 02:02:00,-5.0,-11.0,30.12,WSW,242,0.0,-999.0,76,-99.99,,,-99.99,,2013-01-12 09:02:00,
2013-01-12 02:11:00,-5.0,-11.0,30.12,WSW,242,0.0,-999.0,76,-99.99,,,-99.99,,2013-01-12 09:11:00,
2013-01-12 02:22:00,-6.0,-12.0,30.13,WSW,242,0.0,-999.0,75,-99.99,,,-99.99,,2013-01-12 09:22:00,
2013-01-12 02:32:00,-7.0,-13.0,30.14,WSW,242,0.0,-999.0,75,-99.99,,,-99.99,,2013-01-12 09:32:00,
2013-01-12 02:42:00,-7.0,-13.0,30.14,WSW,242,0.0,-999.0,75,-99.99,,,-99.99,,2013-01-12 09:42:00,
2013-01-12 02:53:00,-6.0,-12.0,30.14,WSW,242,0.0,-999.0,74,-99.99,,,-99.99,,2013-01-12 09:53:00,
2013-01-12 03:02:00,-7.0,-13.0,30.14,WSW,242,0.0,-999.0,75,-99.99,,,-99.99,,2013-01-12 10:02:00,
2013-01-12 03:11:00,-7.0,-13.0,30.14,WSW,242,0.0,-999.0,75,-99.99,,,-99.99,,2013-01-12 10:11:00,
2013-01-12 03:22:00,-7.0,-13.0,30.14,WSW,242,0.0,-999.0,75,-99.99,,,-99.99,,2013-01-12 10:22:00,
2013-01-12 03:32:00,-7.0,-13.0,30.14,WSW,242,0.0,-999.0,74,-99.99,,,-99.99,,2013-01-12 10:32:00,
2013-01-12 03:42:00,-7.0,-13.0,30.14,WSW,242,0.0,-999.0,74,-99.99,,,-99.99,,2013-01-12 10:42:00,
2013-01-12 03:52:00,-7.0,-13.0,30.14,WSW,242,0.0,-999.0,75,-99.99,,,-99.99,,2013-01-12 10:52:00,
2013-01-12 04:02:00,-7.0,-13.0,30.14,WSW,242,0.0,-999.0,74,-99.99,,,-99.99,,2013-01-12 11:02:00,
2013-01-12 04:12:00,-7.0,-13.0,30.14,WSW,242,0.0,-999.0,74,-99.99,,,-99.99,,2013-01-12 11:12:00,
2013-01-12 04:22:00,-7.0,-14.0,30.14,WSW,242,0.0,-999.0,72,-99.99,,,-99.99,,2013-01-12 11:22:00,
2013-01-12 04:32:00,-7.0,-13.0,30.15,WSW,242,0.0,-999.0,73,-99.99,,,-99.99,,2013-01-12 11:32:00,
2013-01-12 04:42:00,-7.0,-13.0,30.15,WSW,242,0.0,-999.0,73,-99.99,,,-99.99,,2013-01-12 11:42:00,
2013-01-12 04:53:00,-7.0,-13.0,30.15,WSW,242,0.0,-999.0,73,-99.99,,,-99.99,,2013-01-12 11:53:00,
2013-01-12 05:02:00,-7.0,-14.0,30.16,WSW,242,0.0,-999.0,72,-99.99,,,-99.99,,2013-01-12 12:02:00,
2013-01-12 05:11:00,-7.0,-14.0,30.16,WSW,242,0.0,-999.0,72,-99.99,,,-99.99,,2013-01-12 12:11:00,
2013-01-12 05:22:00,-8.0,-15.0,30.17,WSW,242,0.0,-999.0,72,-99.99,,,-99.99,,2013-01-12 12:22:00,
2013-01-12 05:32:00,-8.0,-14.0,30.18,WSW,242,0.0,-999.0,73,-99.99,,,-99.99,,2013-01-12 12:32:00,
2013-01-12 05:42:00,-8.0,-14.0,30.18,WSW,242,0.0,-999.0,73,-99.99,,,-99.99,,2013-01-12 12:42:00,
2013-01-12 05:52:00,-8.0,-15.0,30.19,WSW,242,0.0,-999.0,72,-99.99,,,-99.99,,2013-01-12 12:52:00,
2013-01-12 06:02:00,-8.0,-15.0,30.21,WSW,242,0.0,-999.0,72,-99.99,,,-99.99,,2013-01-12 13:02:00,
2013-01-12 06:11:00,-8.0,-15.0,30.21,WSW,242,0.0,-999.0,72,-99.99,,,-99.99,,2013-01-12 13:11:00,
2013-01-12 06:22:00,-8.0,-15.0,30.22,WSW,242,0.0,-999.0,72,-99.99,,,-99.99,,2013-01-12 13:22:00,
2013-01-12 06:32:00,-8.0,-15.0,30.23,WSW,242,0.0,-999.0,72,-99.99,,,-99.99,,2013-01-12 13:32:00,
2013-01-12 06:42:00,-8.0,-15.0,30.23,WSW,242,0.0,-999.0,72,-99.99,,,-99.99,,2013-01-12 13:42:00,
2013-01-12 06:53:00,-8.0,-15.0,30.24,WSW,242,0.0,-999.0,71,-99.99,,,-99.99,,2013-01-12 13:53:00,
2013-01-12 07:02:00,-9.0,-16.0,30.25,WSW,242,0.0,-999.0,72,-99.99,,,-99.99,,2013-01-12 14:02:00,
2013-01-12 07:12:00,-9.0,-16.0,30.25,WSW,242,0.0,-999.0,72,-99.99,,,-99.99,,2013-01-12 14:12:00,
2013-01-12 07:22:00,-8.0,-15.0,30.27,WSW,242,0.0,-999.0,70,-99.99,,,-99.99,,2013-01-12 14:22:00,
2013-01-12 07:32:00,-8.0,-15.0,30.27,WSW,242,0.0,-999.0,70,-99.99,,,-99.99,,2013-01-12 14:32:00,
2013-01-12 07:43:00,-8.0,-15.0,30.27,WSW,242,0.0,-999.0,70,-99.99,,,-99.99,,2013-01-12 14:43:00,
2013-01-12 07:53:00,-7.0,-14.0,30.29,WSW,242,0.0,-999.0,69,-99.99,,,-99.99,,2013-01-12 14:53:00,
2013-01-12 08:02:00,-9.0,-16.0,30.30,WSW,242,0.0,-999.0,69,-99.99,,,-99.99,,2013-01-12 15:02:00,
2013-01-12 08:12:00,-9.0,-16.0,30.30,WSW,242,0.0,-999.0,69,-99.99,,,-99.99,,2013-01-12 15:12:00,
2013-01-12 08:22:00,-8.0,-15.0,30.32,WSW,242,0.0,-999.0,71,-99.99,,,-99.99,,2013-01-12 15:22:00,
2013-01-12 08:33:00,-6.0,-13.0,30.33,WSW,242,0.0,-999.0,71,-99.99,,,-99.99,,2013-01-12 15:33:00,
2013-01-12 08:42:00,-6.0,-13.0,30.33,WSW,242,0.0,-999.0,71,-99.99,,,-99.99,,2013-01-12 15:42:00,
2013-01-12 08:53:00,-6.0,-13.0,30.33,WSW,242,0.0,-999.0,70,-99.99,,,-99.99,,2013-01-12 15:53:00,
2013-01-12 09:02:00,-4.0,-12.0,30.35,WSW,242,0.0,-999.0,68,-99.99,,,-99.99,,2013-01-12 16:02:00,
2013-01-12 09:12:00,-4.0,-12.0,30.35,WSW,242,0.0,-999.0,68,-99.99,,,-99.99,,2013-01-12 16:12:00,
2013-01-12 09:22:00,-3.0,-11.0,30.35,WSW,242,0.0,-999.0,67,-99.99,,,-99.99,,2013-01-12 16:22:00,
2013-01-12 09:32:00,-3.0,-11.0,30.35,WSW,242,0.0,-999.0,67,-99.99,,,-99.99,,2013-01-12 16:32:00,
2013-01-12 09:42:00,-3.0,-11.0,30.35,WSW,242,0.0,-999.0,67,-99.99,,,-99.99,,2013-01-12 16:42:00,
2013-01-12 09:53:00,-2.0,-10.0,30.35,WSW,242,0.0,-999.0,67,-99.99,,,-99.99,,2013-01-12 16:53:00,
2013-01-12 10:02:00,0.0,-9.0,30.35,WSW,242,0.0,-999.0,64,-99.99,,,-99.99,,2013-01-12 17:02:00,
2013-01-12 10:12:00,0.0,-9.0,30.35,WSW,242,0.0,-999.0,64,-99.99,,,-99.99,,2013-01-12 17:12:00,
2013-01-12 10:22:00,0.0,-10.0,30.36,WSW,242,0.0,-999.0,61,-99.99,,,-99.99,,2013-01-12 17:22:00,
2013-01-12 10:32:00,2.0,-9.0,30.35,WSW,242,0.0,-999.0,59,-99.99,,,-99.99,,2013-01-12 17:32:00,
2013-01-12 10:42:00,2.0,-9.0,30.35,WSW,242,0.0,-999.0,59,-99.99,,,-99.99,,2013-01-12 17:42:00,
2013-01-12 10:53:00,4.0,-8.0,30.35,WSW,242,1.0,-999.0,57,-99.99,,,-99.99,,2013-01-12 17:53:00,
2013-01-12 11:02:00,5.0,-8.0,30.35,WSW,242,1.0,-999.0,55,-99.99,,,-99.99,,2013-01-12 18:02:00,
2013-01-12 11:12:00,5.0,-8.0,30.35,WSW,242,1.0,-999.0,55,-99.99,,,-99.99,,2013-01-12 18:12:00,
2013-01-12 11:22:00,7.0,-7.0,30.34,WSW,240,2.0,-999.0,52,-99.99,,,-99.99,,2013-01-12 18:22:00,
2013-01-12 11:33:00,8.0,-6.0,30.32,SW,225,2.0,-999.0,53,-99.99,,,-99.99,,2013-01-12 18:33:00,
2013-01-12 11:42:00,8.0,-6.0,30.32,SW,225,2.0,-999.0,53,-99.99,,,-99.99,,2013-01-12 18:42:00,
2013-01-12 11:52:00,9.0,-5.0,30.32,SW,225,2.0,-999.0,51,-99.99,,,-99.99,,2013-01-12 18:52:00,
2013-01-12 12:02:00,12.0,-3.0,30.31,SE,125,1.0,-999.0,50,-99.99,,,-99.99,,2013-01-12 19:02:00,
2013-01-12 12:12:00,12.0,-3.0,30.31,SE,125,1.0,-999.0,50,-99.99,,,-99.99,,2013-01-12 19:12:00,
2013-01-12 12:22:00,13.0,-3.0,30.30,South,175,2.0,-999.0,49,-99.99,,,-99.99,,2013-01-12 19:22:00,
2013-01-12 12:32:00,12.0,-3.0,30.30,ESE,107,3.0,-999.0,51,-99.99,,,-99.99,,2013-01-12 19:32:00,
2013-01-12 12:42:00,12.0,-3.0,30.30,ESE,107,3.0,-999.0,51,-99.99,,,-99.99,,2013-01-12 19:42:00,
2013-01-12 12:52:00,11.0,-3.0,30.30,South,169,2.0,-999.0,52,-99.99,,,-99.99,,2013-01-12 19:52:00,
2013-01-12 13:02:00,12.0,-1.0,30.29,SW,221,4.0,-999.0,55,-99.99,,,-99.99,,2013-01-12 20:02:00,
2013-01-12 13:12:00,12.0,1.0,30.28,SSW,196,4.0,-999.0,60,-99.99,,,-99.99,,2013-01-12 20:12:00,
2013-01-12 13:22:00,12.0,1.0,30.28,SSW,196,4.0,-999.0,60,-99.99,,,-99.99,,2013-01-12 20:22:00,
2013-01-12 13:32:00,13.0,1.0,30.28,East,90,3.0,-999.0,59,-99.99,,,-99.99,,2013-01-12 20:32:00,
2013-01-12 13:42:00,13.0,1.0,30.28,East,90,3.0,-999.0,59,-99.99,,,-99.99,,2013-01-12 20:42:00,
2013-01-12 13:53:00,13.0,0.0,30.28,SSE,157,3.0,-999.0,54,-99.99,,,-99.99,,2013-01-12 20:53:00,
2013-01-12 14:02:00,14.0,0.0,30.28,South,185,5.0,-999.0,52,-99.99,,,-99.99,,2013-01-12 21:02:00,
2013-01-12 14:12:00,15.0,-1.0,30.28,SSW,194,4.0,-999.0,48,-99.99,,,-99.99,,2013-01-12 21:12:00,
2013-01-12 14:22:00,15.0,-1.0,30.28,SSW,194,4.0,-999.0,48,-99.99,,,-99.99,,2013-01-12 21:22:00,
2013-01-12 14:32:00,14.0,-1.0,30.28,South,175,4.0,-999.0,51,-99.99,,,-99.99,,2013-01-12 21:32:00,
2013-01-12 14:42:00,14.0,-1.0,30.28,South,175,4.0,-999.0,51,-99.99,,,-99.99,,2013-01-12 21:42:00,
2013-01-12 14:53:00,13.0,-1.0,30.28,SSE,164,5.0,-999.0,52,-99.99,,,-99.99,,2013-01-12 21:53:00,
2013-01-12 15:02:00,13.0,-2.0,30.29,West,264,4.0,-999.0,51,-99.99,,,-99.99,,2013-01-12 22:02:00,
2013-01-12 15:12:00,13.0,-2.0,30.29,West,264,4.0,-999.0,51,-99.99,,,-99.99,,2013-01-12 22:12:00,
2013-01-12 15:22:00,11.0,-1.0,30.29,SSW,200,2.0,-999.0,57,-99.99,,,-99.99,,2013-01-12 22:22:00,
2013-01-12 15:32:00,11.0,-2.0,30.29,South,177,2.0,-999.0,56,-99.99,,,-99.99,,2013-01-12 22:32:00,
2013-01-12 15:42:00,11.0,-2.0,30.29,South,177,2.0,-999.0,56,-99.99,,,-99.99,,2013-01-12 22:42:00,
2013-01-12 15:53:00,14.0,-1.0,30.29,South,171,3.0,-999.0,51,-99.99,,,-99.99,,2013-01-12 22:53:00,
2013-01-12 16:02:00,11.0,-2.0,30.29,West,263,4.0,-999.0,55,-99.99,,,-99.99,,2013-01-12 23:02:00,
2013-01-12 16:12:00,12.0,-1.0,30.30,South,188,4.0,-999.0,54,-99.99,,,-99.99,,2013-01-12 23:12:00,
2013-01-12 16:22:00,12.0,-1.0,30.30,South,188,4.0,-999.0,54,-99.99,,,-99.99,,2013-01-12 23:22:00,
2013-01-12 16:32:00,10.0,-2.0,30.30,WSW,250,2.0,-999.0,58,-99.99,,,-99.99,,2013-01-12 23:32:00,
2013-01-12 16:42:00,10.0,-2.0,30.30,WSW,250,2.0,-999.0,58,-99.99,,,-99.99,,2013-01-12 23:42:00,
2013-01-12 16:53:00,9.0,-1.0,30.31,South,178,1.0,-999.0,62,-99.99,,,-99.99,,2013-01-12 23:53:00,
2013-01-12 17:02:00,8.0,-1.0,30.31,South,188,1.0,-999.0,65,-99.99,,,-99.99,,2013-01-13 00:02:00,
2013-01-12 17:12:00,8.0,-1.0,30.31,South,188,1.0,-999.0,65,-99.99,,,-99.99,,2013-01-13 00:12:00,
2013-01-12 17:22:00,8.0,0.0,30.32,SSW,210,2.0,-999.0,68,-99.99,,,-99.99,,2013-01-13 00:22:00,
2013-01-12 17:32:00,7.0,0.0,30.32,West,280,1.0,-999.0,73,-99.99,,,-99.99,,2013-01-13 00:32:00,
2013-01-12 17:42:00,7.0,0.0,30.32,West,280,1.0,-999.0,73,-99.99,,,-99.99,,2013-01-13 00:42:00,
2013-01-12 17:53:00,7.0,0.0,30.32,WNW,284,0.0,-999.0,73,-99.99,,,-99.99,,2013-01-13 00:53:00,
2013-01-12 18:02:00,7.0,0.0,30.32,WNW,284,0.0,-999.0,72,-99.99,,,-99.99,,2013-01-13 01:02:00,
2013-01-12 18:12:00,7.0,0.0,30.32,WNW,284,0.0,-999.0,72,-99.99,,,-99.99,,2013-01-13 01:12:00,
2013-01-12 18:22:00,7.0,-1.0,30.32,WNW,284,0.0,-999.0,70,-99.99,,,-99.99,,2013-01-13 01:22:00,
2013-01-12 18:32:00,6.0,-1.0,30.32,WNW,284,1.0,-999.0,71,-99.99,,,-99.99,,2013-01-13 01:32:00,
2013-01-12 18:42:00,6.0,-1.0,30.32,WNW,284,1.0,-999.0,71,-99.99,,,-99.99,,2013-01-13 01:42:00,
2013-01-12 18:53:00,6.0,-1.0,30.32,WNW,284,0.0,-999.0,71,-99.99,,,-99.99,,2013-01-13 01:53:00,
2013-01-12 19:02:00,5.0,-2.0,30.33,WNW,284,0.0,-999.0,71,-99.99,,,-99.99,,2013-01-13 02:02:00,
2013-01-12 19:12:00,5.0,-2.0,30.33,WNW,284,0.0,-999.0,71,-99.99,,,-99.99,,2013-01-13 02:12:00,
2013-01-12 19:22:00,3.0,-4.0,30.34,WNW,284,0.0,-999.0,72,-99.99,,,-99.99,,2013-01-13 02:22:00,
2013-01-12 19:32:00,3.0,-3.0,30.34,WNW,284,0.0,-999.0,74,-99.99,,,-99.99,,2013-01-13 02:32:00,
2013-01-12 19:42:00,3.0,-3.0,30.34,WNW,284,0.0,-999.0,74,-99.99,,,-99.99,,2013-01-13 02:42:00,
2013-01-12 19:53:00,3.0,-3.0,30.34,WNW,284,0.0,-999.0,74,-99.99,,,-99.99,,2013-01-13 02:53:00,
2013-01-12 20:02:00,1.0,-5.0,30.34,WNW,284,0.0,-999.0,75,-99.99,,,-99.99,,2013-01-13 03:02:00,
2013-01-12 20:11:00,1.0,-5.0,30.34,WNW,284,0.0,-999.0,75,-99.99,,,-99.99,,2013-01-13 03:11:00,
2013-01-12 20:22:00,1.0,-6.0,30.33,WNW,284,0.0,-999.0,73,-99.99,,,-99.99,,2013-01-13 03:22:00,
2013-01-12 20:32:00,0.0,-6.0,30.34,WNW,284,0.0,-999.0,75,-99.99,,,-99.99,,2013-01-13 03:32:00,
2013-01-12 20:42:00,0.0,-6.0,30.34,WNW,284,0.0,-999.0,75,-99.99,,,-99.99,,2013-01-13 03:42:00,
2013-01-12 20:52:00,0.0,-6.0,30.34,WNW,284,0.0,-999.0,74,-99.99,,,-99.99,,2013-01-13 03:52:00,
2013-01-12 21:02:00,0.0,-6.0,30.34,WNW,284,0.0,-999.0,76,-99.99,,,-99.99,,2013-01-13 04:02:00,
2013-01-12 21:12:00,0.0,-6.0,30.34,WNW,284,0.0,-999.0,76,-99.99,,,-99.99,,2013-01-13 04:12:00,
2013-01-12 21:22:00,0.0,-5.0,30.35,WNW,284,0.0,-999.0,77,-99.99,,,-99.99,,2013-01-13 04:22:00,
2013-01-12 21:32:00,-1.0,-7.0,30.35,WNW,284,0.0,-999.0,76,-99.99,,,-99.99,,2013-01-13 04:32:00,
2013-01-12 21:42:00,-1.0,-7.0,30.35,WNW,284,0.0,-999.0,76,-99.99,,,-99.99,,2013-01-13 04:42:00,
2013-01-12 21:52:00,-2.0,-8.0,30.35,WNW,284,0.0,-999.0,76,-99.99,,,-99.99,,2013-01-13 04:52:00,
2013-01-12 22:03:00,-2.0,-7.0,30.35,WNW,284,0.0,-999.0,78,-99.99,,,-99.99,,2013-01-13 05:03:00,
2013-01-12 22:12:00,-2.0,-7.0,30.35,WNW,284,0.0,-999.0,78,-99.99,,,-99.99,,2013-01-13 05:12:00,
2013-01-12 22:22:00,-2.0,-7.0,30.36,WNW,284,0.0,-999.0,77,-99.99,,,-99.99,,2013-01-13 05:22:00,
2013-01-12 22:32:00,-3.0,-8.0,30.36,WNW,284,0.0,-999.0,77,-99.99,,,-99.99,,2013-01-13 05:32:00,
2013-01-12 22:42:00,-3.0,-8.0,30.36,WNW,284,0.0,-999.0,77,-99.99,,,-99.99,,2013-01-13 05:42:00,
2013-01-12 22:52:00,-3.0,-9.0,30.37,WNW,284,0.0,-999.0,76,-99.99,,,-99.99,,2013-01-13 05:52:00,
2013-01-12 23:02:00,-3.0,-8.0,30.37,WNW,284,0.0,-999.0,78,-99.99,,,-99.99,,2013-01-13 06:02:00,
2013-01-12 23:12:00,-3.0,-8.0,30.37,WNW,284,0.0,-999.0,78,-99.99,,,-99.99,,2013-01-13 06:12:00,
2013-01-12 23:22:00,-4.0,-9.0,30.37,WNW,284,0.0,-999.0,78,-99.99,,,-99.99,,2013-01-13 06:22:00,
2013-01-12 23:32:00,-4.0,-9.0,30.38,WNW,284,0.0,-999.0,78,-99.99,,,-99.99,,2013-01-13 06:32:00,
2013-01-12 23:42:00,-4.0,-9.0,30.38,WNW,284,0.0,-999.0,78,-99.99,,,-99.99,,2013-01-13 06:42:00,
2013-01-12 23:52:00,-5.0,-11.0,30.39,WNW,284,0.0,-999.0,76,-99.99,,,-99.99,,2013-01-13 06:52:00,